When you browse on this site, cookies collect data to enhance your experience and personalize the content and advertising you see.
Visit our Privacy Policy to learn more. By continuing to use the site, you agree to this use of cookies and data.
  • In Austria
  • List of Countries
  • For 7 days
  • Water Temperature
  • Weather Map
  • News
  • Weather Widgets
  • user-avatar
    Login

    Hourly Weather Nizhnee Krasnoe

    Today, 27 January, Monday

    Time Temperature Precipitation Wind Pressure Humidity
    00:00 0°C° 0 mm 4 mps 745 mmHg 89%
    01:00 0°C° 0 mm 4 mps 745 mmHg 90%
    02:00 0°C° 0 mm 4 mps 745 mmHg 91%
    03:00 +1°C° 0 mm 3 mps 745 mmHg 92%
    04:00 +1°C° 0 mm 3 mps 745 mmHg 92%
    05:00 +1°C° 0 mm 3 mps 745 mmHg 93%
    06:00 +1°C° 0 mm 2 mps 745 mmHg 94%
    07:00 +1°C° 0 mm 2 mps 745 mmHg 95%
    08:00 +1°C° 0 mm 2 mps 745 mmHg 97%
    09:00 +1°C° 0.1 mm 2 mps 745 mmHg 97%
    10:00 +1°C° 0.1 mm 2 mps 745 mmHg 97%
    11:00 +1°C° 0.1 mm 2 mps 745 mmHg 97%
    12:00 +1°C° 0.1 mm 2 mps 745 mmHg 97%
    13:00 +1°C° 0.1 mm 2 mps 745 mmHg 97%
    14:00 +1°C° 0.1 mm 2 mps 745 mmHg 97%
    15:00 +1°C° 0.1 mm 2 mps 745 mmHg 97%
    16:00 +1°C° 0.1 mm 2 mps 745 mmHg 98%
    17:00 +1°C° 0.1 mm 2 mps 744 mmHg 98%
    18:00 +1°C° 0.3 mm 2 mps 744 mmHg 98%
    19:00 +2°C° 0.3 mm 1 mps 744 mmHg 98%
    20:00 +1°C° 0.3 mm 1 mps 744 mmHg 98%
    21:00 -1°C° 0.4 mm 2 mps 744 mmHg 98%
    22:00 -1°C° 0.4 mm 2 mps 744 mmHg 98%
    23:00 -1°C° 0.4 mm 2 mps 744 mmHg 98%

    Tomorrow, 28 January, Tuesday

    Time Temperature Precipitation Wind Pressure Humidity
    00:00 -1°C° 0.2 mm 2 mps 743 mmHg 98%
    01:00 -1°C° 0.2 mm 2 mps 743 mmHg 97%
    02:00 +1°C° 0.2 mm 1 mps 743 mmHg 97%
    03:00 +1°C° 0 mm 1 mps 743 mmHg 97%
    04:00 +1°C° 0 mm 1 mps 743 mmHg 97%
    05:00 +1°C° 0 mm 1 mps 742 mmHg 97%
    06:00 +1°C° 0 mm 1 mps 742 mmHg 97%
    07:00 -1°C° 0 mm 2 mps 743 mmHg 96%
    08:00 -1°C° 0 mm 2 mps 743 mmHg 96%
    09:00 -1°C° 0 mm 2 mps 743 mmHg 95%
    10:00 +1°C° 0 mm 2 mps 743 mmHg 93%
    11:00 +1°C° 0 mm 2 mps 742 mmHg 92%
    12:00 +1°C° 0 mm 2 mps 742 mmHg 91%
    13:00 +1°C° 0 mm 2 mps 742 mmHg 90%
    14:00 +1°C° 0 mm 2 mps 742 mmHg 89%
    15:00 +1°C° 0 mm 2 mps 742 mmHg 92%
    16:00 +1°C° 0 mm 2 mps 742 mmHg 95%
    17:00 -1°C° 0 mm 2 mps 742 mmHg 97%
    18:00 -1°C° 0 mm 2 mps 742 mmHg 97%
    19:00 +1°C° 0 mm 2 mps 742 mmHg 97%
    20:00 +1°C° 0 mm 2 mps 742 mmHg 97%
    21:00 +1°C° 0 mm 2 mps 741 mmHg 97%
    22:00 0°C° 0 mm 3 mps 741 mmHg 97%
    23:00 0°C° 0 mm 3 mps 741 mmHg 97%

    Day after tomorrow, 29 January, Wednesday

    Time Temperature Precipitation Wind Pressure Humidity
    00:00 -1°C° 0 mm 3 mps 741 mmHg 96%
    01:00 -1°C° 0 mm 3 mps 741 mmHg 95%
    02:00 -1°C° 0 mm 3 mps 740 mmHg 94%
    03:00 -1°C° 0 mm 3 mps 740 mmHg 94%
    04:00 -2°C° 0 mm 3 mps 739 mmHg 95%
    05:00 -2°C° 0 mm 3 mps 739 mmHg 95%
    06:00 -3°C° 0 mm 4 mps 739 mmHg 94%
    07:00 -2°C° 0 mm 4 mps 739 mmHg 94%
    08:00 -2°C° 0 mm 4 mps 739 mmHg 93%
    09:00 -1°C° 0 mm 4 mps 739 mmHg 93%
    10:00 -1°C° 0 mm 4 mps 738 mmHg 93%
    11:00 +1°C° 0 mm 3 mps 738 mmHg 92%
    12:00 0°C° 0 mm 4 mps 738 mmHg 93%
    13:00 0°C° 0 mm 4 mps 738 mmHg 93%
    14:00 0°C° 0 mm 4 mps 738 mmHg 93%
    15:00 0°C° 0 mm 4 mps 737 mmHg 93%
    16:00 0°C° 0 mm 4 mps 737 mmHg 93%
    17:00 0°C° 0 mm 4 mps 737 mmHg 93%
    18:00 0°C° 0 mm 4 mps 737 mmHg 94%
    19:00 0°C° 0 mm 4 mps 737 mmHg 94%
    20:00 0°C° 0 mm 4 mps 736 mmHg 95%
    21:00 0°C° 0 mm 4 mps 736 mmHg 95%
    22:00 0°C° 0 mm 4 mps 736 mmHg 96%
    23:00 0°C° 0 mm 4 mps 735 mmHg 96%

    30 January, Thursday

    Time Temperature Precipitation Wind Pressure Humidity
    00:00 0°C° 0.2 mm 4 mps 735 mmHg 97%
    01:00 +1°C° 0.2 mm 3 mps 735 mmHg 97%
    02:00 +1°C° 0.2 mm 3 mps 735 mmHg 97%
    03:00 +1°C° 0.2 mm 3 mps 735 mmHg 97%
    04:00 +1°C° 0.2 mm 3 mps 735 mmHg 97%
    05:00 +1°C° 0.2 mm 3 mps 735 mmHg 97%
    06:00 +1°C° 0.2 mm 3 mps 735 mmHg 97%
    07:00 +1°C° 0.2 mm 3 mps 735 mmHg 97%
    08:00 +1°C° 0.2 mm 3 mps 735 mmHg 97%
    09:00 +1°C° 0 mm 3 mps 735 mmHg 96%
    10:00 +1°C° 0 mm 3 mps 735 mmHg 96%
    11:00 +2°C° 0 mm 2 mps 735 mmHg 96%
    12:00 +2°C° 0.2 mm 2 mps 735 mmHg 96%
    13:00 +2°C° 0.2 mm 2 mps 735 mmHg 96%
    14:00 +2°C° 0.2 mm 2 mps 735 mmHg 97%
    15:00 +2°C° 0.3 mm 2 mps 736 mmHg 97%
    16:00 +2°C° 0.3 mm 2 mps 736 mmHg 97%
    17:00 +2°C° 0.3 mm 2 mps 736 mmHg 97%
    18:00 +2°C° 0.2 mm 2 mps 736 mmHg 97%
    19:00 +1°C° 0.2 mm 2 mps 736 mmHg 97%
    20:00 +1°C° 0.2 mm 2 mps 736 mmHg 97%
    21:00 +2°C° 0.2 mm 1 mps 736 mmHg 97%
    22:00 +2°C° 0.2 mm 1 mps 736 mmHg 97%
    23:00 +2°C° 0.2 mm 1 mps 736 mmHg 97%

    31 January, Friday

    Time Temperature Precipitation Wind Pressure Humidity
    00:00 +2°C° 0.2 mm 1 mps 736 mmHg 97%
    01:00 +2°C° 0.2 mm 1 mps 737 mmHg 97%
    02:00 +1°C° 0.2 mm 1 mps 737 mmHg 98%
    03:00 +1°C° 0.3 mm 1 mps 737 mmHg 98%
    04:00 +2°C° 0.3 mm 1 mps 737 mmHg 98%
    05:00 +2°C° 0.3 mm 1 mps 737 mmHg 98%
    06:00 +2°C° 0.1 mm 1 mps 737 mmHg 97%
    07:00 +1°C° 0.1 mm 2 mps 737 mmHg 97%
    08:00 +1°C° 0.1 mm 2 mps 737 mmHg 97%
    09:00 +1°C° 0 mm 2 mps 737 mmHg 96%
    10:00 +1°C° 0 mm 2 mps 737 mmHg 94%
    11:00 +1°C° 0 mm 2 mps 737 mmHg 93%
    12:00 +1°C° 0 mm 2 mps 737 mmHg 90%
    13:00 +2°C° 0 mm 1 mps 737 mmHg 87%
    14:00 +3°C° 0 mm 1 mps 737 mmHg 84%
    15:00 +2°C° 0 mm 1 mps 737 mmHg 86%
    16:00 +2°C° 0 mm 1 mps 737 mmHg 87%
    17:00 +1°C° 0 mm 1 mps 737 mmHg 89%
    18:00 +1°C° 0 mm 1 mps 737 mmHg 89%
    19:00 0°C° 0 mm 0 mps 738 mmHg 89%
    20:00 -1°C° 0 mm 0 mps 738 mmHg 90%
    21:00 -1°C° 0 mm 0 mps 738 mmHg 90%
    22:00 -1°C° 0 mm 0 mps 739 mmHg 90%
    23:00 0°C° 0 mm 1 mps 739 mmHg 90%

    1 February, Saturday

    Time Temperature Precipitation Wind Pressure Humidity
    00:00 0°C° 0 mm 1 mps 740 mmHg 91%
    01:00 -1°C° 0 mm 1 mps 740 mmHg 91%
    02:00 -1°C° 0 mm 1 mps 740 mmHg 92%
    03:00 -1°C° 0 mm 1 mps 741 mmHg 92%
    04:00 -1°C° 0 mm 1 mps 741 mmHg 92%
    05:00 -1°C° 0 mm 1 mps 741 mmHg 93%
    06:00 -1°C° 0 mm 1 mps 742 mmHg 93%
    07:00 0°C° 0 mm 1 mps 742 mmHg 94%
    08:00 0°C° 0 mm 1 mps 742 mmHg 95%
    09:00 0°C° 0 mm 1 mps 742 mmHg 93%
    10:00 -1°C° 0 mm 2 mps 742 mmHg 92%
    11:00 +1°C° 0 mm 2 mps 742 mmHg 90%
    12:00 +1°C° 0 mm 2 mps 742 mmHg 90%
    13:00 0°C° 0 mm 3 mps 742 mmHg 90%
    14:00 +1°C° 0 mm 3 mps 742 mmHg 90%
    15:00 +1°C° 0 mm 3 mps 742 mmHg 91%
    16:00 +1°C° 0 mm 3 mps 741 mmHg 92%
    17:00 +1°C° 0 mm 3 mps 741 mmHg 93%
    18:00 0°C° 0 mm 4 mps 741 mmHg 92%
    19:00 0°C° 0 mm 4 mps 740 mmHg 92%
    20:00 0°C° 0 mm 4 mps 740 mmHg 92%
    21:00 0°C° 0.1 mm 4 mps 740 mmHg 93%
    22:00 0°C° 0.1 mm 4 mps 739 mmHg 94%
    23:00 0°C° 0.1 mm 4 mps 739 mmHg 95%
    Show more